Location: Sawmill Trailhead
(33.5800°N, 116.4497°W)
Time: 09:41:17
(UTC-07:00)

Uosat F - Visible Passes

Search period start: 21 October 2014 00:00
Search period end: 31 October 2014 00:00
Orbit: 752 x 761 km, 98.7° (Epoch: 20 October)

Date Brightness Start Highest point End Pass type
(mag) Time Alt. Az. Time Alt. Az. Time Alt. Az.
21 Oct 11.5 05:00:14 10° NNE 05:05:15 62° ESE 05:10:13 10° S visible
22 Oct 13.2 04:21:56 10° NE 04:25:58 24° E 04:29:58 10° SSE visible
22 Oct 11.8 06:00:16 10° N 06:04:42 32° WNW 06:09:08 10° SW visible
23 Oct 10.9 05:20:40 10° N 05:25:45 82° WNW 05:30:46 10° SSW visible
24 Oct 12.4 04:41:52 10° NNE 04:46:34 38° E 04:51:14 10° SSE visible
24 Oct 12.3 06:21:23 10° NNW 06:25:02 20° WNW 06:28:40 10° WSW visible
25 Oct 13.9 04:04:22 10° ENE 04:07:11 15° E 04:09:58 10° SE visible
25 Oct 11.2 05:41:18 10° N 05:46:11 50° WNW 05:51:01 10° SSW visible
26 Oct 11.5 05:02:05 10° NNE 05:07:06 64° ESE 05:12:05 10° S visible
27 Oct 13.2 04:23:45 10° NE 04:27:49 24° E 04:31:52 10° SSE visible
27 Oct 11.8 06:02:09 10° N 06:06:33 31° WNW 06:10:56 10° SW visible
28 Oct 10.9 05:22:31 10° N 05:27:35 79° WNW 05:32:36 10° SSW visible
29 Oct 12.3 04:43:41 10° NNE 04:48:25 39° E 04:53:06 10° SSE visible
29 Oct 12.3 06:23:17 10° NNW 06:26:52 20° WNW 06:30:26 10° WSW visible
30 Oct 13.8 04:06:07 10° ENE 04:09:01 15° E 04:11:55 10° SE visible
30 Oct 11.2 05:43:09 10° N 05:48:00 48° WNW 05:52:50 10° SW visible
